Regional Weather Roundup
Issued by NWS

Home | Current Version | Previous Version | Graphics & Text | Print | Product List | Glossary On
Versions: 1 2 3 4 5 6 7 8 9 10 11 12 13 14 15 16 17 18 19 20 21 22 23 24 25 26 27 28 29 30 31 32 33 34 35 36 37 38 39 40 41 42 43 44 45 46 47 48 49 50
000
ASUS43 KDMX 232306
RWRIA

WEATHER ROUNDUP FOR IOWA
NATIONAL WEATHER SERVICE DES MOINES IA
500 PM CST TUE JAN 23 2018

NOTE: "FAIR" INDICATES FEW OR NO CLOUDS BELOW 12,000 FEET WITH NO
SIGNIFICANT WEATHER AND/OR OBSTRUCTIONS TO VISIBILITY.

* - THESE STATIONS ARE NOT NWS STATIONS...THUS NOT UNDER NWS
QUALITY CONTROL.  THEY ALSO DO NOT REPORT WEATHER SUCH
AS PRECIPITATION OR FOG.

IAZ001>003-012>014-020>022-031>034-043>046-240000-
   NORTHWEST IOWA

CITY           SKY/WX    TMP DP  RH WIND       PRES   REMARKS
CARROLL *      CLOUDY    25  21  86 NW8       30.17R WCI  16
CHEROKEE *     CLOUDY    22  21  96 W7        30.18R WCI  14
DENISON *      CLOUDY    23  21  93 W8        30.19R WCI  14
LE MARS *      CLOUDY    23  21  93 SW6       30.18R WCI  16
ORANGE CITY *  CLOUDY    21  21 100 W7        30.15R WCI  13
SHELDON *      CLOUDY    23  21  93 W6        30.14R WCI  16
SIOUX CITY     CLOUDY    25  22  88 CALM      30.19R
SPENCER        CLOUDY    23  18  81 W12       30.16R WCI  12
STORM LAKE *   CLOUDY    21  21 100 W13       30.15R WCI   9
$$

IAZ055>058-069>071-079>083-090>094-240000-
   SOUTHWEST IOWA

CITY           SKY/WX    TMP DP  RH WIND       PRES   REMARKS
ATLANTIC *     CLOUDY    25  21  86 W12       30.20R WCI  14
AUDUBON *      CLOUDY    25  21  86 W6        30.18R WCI  18
CLARINDA *     CLOUDY    27  25  93 W8          N/A  WCI  18
COUNCIL BLFS * CLOUDY    25  25 100 W6        30.19S WCI  18
CRESTON *      CLOUDY    27  23  86 W14       30.18R WCI  15
HARLAN  *      CLOUDY    23  23 100 W10       30.21F WCI  12
LAMONI         CLOUDY    27  21  78 NW12      30.17S WCI  17
RED OAK *      CLOUDY    27  23  86 NW6       30.21S WCI  20
SHENANDOAH *   CLOUDY    27  23  86 CALM      30.22S
$$

IAZ047>049-059>061-072>074-084-240000-
   CENTRAL IOWA

CITY           SKY/WX    TMP DP  RH WIND       PRES   REMARKS
AMES           CLOUDY    25  22  88 W13       30.16R WCI  14
ANKENY *       CLOUDY    27  21  80 NW10G18   30.18R WCI  17
BOONE *        CLOUDY    25  21  86 W12       30.15R WCI  14
CHARITON *     CLOUDY    27  23  86 NW9G15    30.16S WCI  17
DES MOINES     CLOUDY    26  20  77 NW15G21   30.17R WCI  14
GRINNELL*      CLOUDY    26  21  81 W16       30.15R WCI  14
KNOXVILLE *    CLOUDY    27  21  80 W14       30.15S WCI  15
MARSHALLTOWN   MOCLDY    26  21  81 NW16      30.12R WCI  14
NEWTON *       CLOUDY    27  23  86 W13       30.15S WCI  16
PELLA *        CLOUDY    27  21  79 W14       30.17S WCI  16
PERRY *        CLOUDY    26  23  87 NW12      30.17R WCI  16
$$

IAZ004>006-015-016-023>025-035-036-240000-
   NORTH CENTRAL IOWA

CITY           SKY/WX    TMP DP  RH WIND       PRES   REMARKS
ALGONA *       CLOUDY    21 N/A N/A W8        30.15R WCI  12
CLARION *      MOCLDY    25  23  93 NW13      30.14R WCI  13
ESTHERVILLE    CLOUDY    19  16  88 W10       30.14R WCI   7
FORT DODGE *   CLOUDY    23  19  85 NW9       30.16R WCI  13
MASON CITY     CLEAR     20  14  77 NW12      30.13R WCI   8
FOREST CITY *    N/A     23  19  86 NW6       30.12S WCI  16
WEBSTER CITY * CLOUDY    25  19  80 NW16      30.14R WCI  12
IOWA FALLS *     N/A     26  21  81 NW12      30.14R WCI  16
$$

IAZ007>011-017>019-026>030-037>042-050>054-066-240000-
   NORTHEAST IOWA

CITY           SKY/WX    TMP DP  RH WIND       PRES   REMARKS
CEDAR RAPIDS   CLOUDY    27  20  75 NW16      30.11R WCI  15
CHARLES CITY * MOCLDY    23  21  93 N8        30.12R WCI  14
CLINTON *      CLOUDY    26  23  88 W16       30.11R WCI  14
DECORAH *      CLOUDY    23  19  86 N7        30.09R WCI  15
DUBUQUE        CLOUDY    24  19  81 NW12      30.09R WCI  13
MONTICELLO *   CLOUDY    25  21  86 NW13G20   30.11R WCI  13
OELWEIN *      CLOUDY    23  23 100 NW13G18   30.11R WCI  11
WATERLOO       CLOUDY    23  17  78 NW10      30.13R WCI  12
$$

IAZ064-065-067-068-078-240000-
   EAST CENTRAL IOWA

CITY           SKY/WX    TMP DP  RH WIND       PRES   REMARKS
DAVENPORT      CLOUDY    28  21  75 W17       30.13R WCI  16
IOWA CITY      CLOUDY    30  20  66 NW13G22   30.14R WCI  20
MT. PLEASANT * CLOUDY    28  21  74 W14G22    30.15R WCI  17
MUSCATINE *    CLOUDY    32  21  64 NW13      30.14S WCI  22
QUAD CITIES    CLOUDY    29  22  75 W12       30.12R WCI  19
$$

IAZ062-063-075>077-085>089-095>099-240000-
   SOUTHEAST IOWA

CITY           SKY/WX    TMP DP  RH WIND       PRES   REMARKS
BURLINGTON     CLOUDY    30  21  69 W12G23    30.13R WCI  20
FAIRFIELD *    CLOUDY    28  21  74 NW17G23   30.15R WCI  16
FORT MADISON * CLOUDY    28  23  80 NW18      30.15R WCI  16
KEOKUK *       CLOUDY    30  25  80 W13G20    30.15R WCI  20
OSKALOOSA *    CLOUDY    28  22  81 NW14G20   30.17R WCI  16
OTTUMWA        CLOUDY    29  20  69 NW12      30.16R WCI  19
WASHINGTON *   CLOUDY    28  23  80 NW20G25   30.15R WCI  15
$$

ABBREVIATIONS USED IN REMARKS
   TC - TEMPERATURES IN CELSIUS
  WCI - WIND CHILL INDEX
   HX - HEAT INDEX
  VSB - VISIBILITY
$$





USA.gov is the U.S. government's official web portal to all federal, state and local government web resources and services.